www.pogodaiklimat.ru

Погода и климат >> Архив погоды >> Ирак >> Nasiriya


ПОГОДА в Nasiriya

  • Прогноз погоды в Nasiriya
  • Монитор погоды в Nasiriya
  • Климат города

АРХИВ ПОГОДЫ в Nasiriya

Время (UTC), дата Ветер
(напр.,м/с)
 
Видим.   Явления Облачность Т
(С)
Тd
(С)
f
(%)
Тe
(С)
Тes
(С)
Комфортность P
(гПа)
Po
(гПа)
Тmin
(С)
Tmax
(С)
R
(мм)
R24
(мм)
S
(см)
00 12.12 СЗ 4 10 км ясно +8.4 +0.4 57 +6 +6 1024.1 1024.0
03 12.12 З 3 10 км ясно +6.0 +0.9 70 +3 +3 1024.1 1024.0
06 12.12 З 5 10 км ясно +10.0 +0.1 50 +7 +9 1025.3 1025.0 +4.8
09 12.12 СЗ 5 6000 м пыль ясно +17.8 -0.4 29 +17 +21 1023.1 1023.0
12 12.12 СЗ 5 6000 м пыль ясно +20.8 -2.3 21 +21 +22 комфорт 1021.1 1021.0
15 12.12 З 2 10 км ясно +16.8 +1.4 35 +17 +17 1021.7 1022.0
18 12.12 ЮЗ 2 10 км ясно +13.2 +2.1 47 +13 +13 1022.3 1022.0 +21.0
21 12.12 З 4 10 км ясно +9.8 +0.3 52 +7 +7 1021.4 1021.0
03 13.12 З 3 10 км ясно +6.4 -1.1 59 +4 +4 1020.9 1021.0
06 13.12 З 2 10 км 1/0
[Ci fib]
+10.0 0.0 50 +9 +12 1022.0 1022.0 +5.5
09 13.12 З 2 10 км 3/0
[Ci sp]
+17.4 +1.7 35 +18 +25 1020.0 1020.0
12 13.12 СЗ 2 10 км 3/0
[Ci fib]
+20.0 +0.8 28 +21 +23 комфорт 1018.0 1018.0
15 13.12 ЮЗ 1 10 км 4/0
[Ci fib]
+16.0 +5.5 50 +17 +17 1018.1 1018.0
18 13.12 Ю 1 10 км ясно +10.6 +3.7 62 +11 +11 1018.0 1018.0 +20.5
21 13.12 Ю 2 10 км ясно +8.0 +3.3 72 +6 +6 1017.1 1017.0
00 14.12 Ю 1 10 км ясно +6.0 +0.9 70 +5 +5 1016.9 1017.0
03 14.12 ЮВ 1 10 км ясно +5.2 -0.8 65 +4 +4 1016.9 1017.0
06 14.12 Ю 1 10 км 3/0
[Ac trans]
+8.2 0.0 56 +8 +11 1018.3 1018.0 +4.5
12 14.12 СВ 4 10 км ясно +21.8 -0.9 22 +21 +23 комфорт 1014.3 1014.0
18 14.12 СВ 4 10 км ясно +13.6 +2.1 46 +12 +12 1014.8 1015.0 +22.2
00 15.12 СВ 3 10 км ясно +10.0 +7.0 82 +8 +8 1014.0 1014.0
03 15.12 СВ 2 10 км ясно +10.4 +8.3 87 +9 +9 1014.1 1014.0
06 15.12 З 1 4000 м дымка 3/0
[Ci fib]
+12.4 +9.2 81 +12 +16 1016.3 1016.0 +9.0
09 15.12 СЗ 3 10 км 3/0
[Ci sp]
+20.4 +11.8 58 +23 +29 комфорт 1015.5 1016.0
12 15.12 С 5 10 км 4/4 900 м
[Cu med, cong Ci fib]
+22.6 +10.2 45 +24 +25 комфорт 1014.2 1014.0
15 15.12 СВ 3 10 км 3/0
[Ci sp]
+19.4 +10.1 55 +21 +21 комфорт 1016.1 1016.0
18 15.12 В 1 10 км 8/8 900 м
[Cu med, cong]
+17.2 +9.5 61 +18 +18 1018.7 1019.0 +22.8
21 15.12 СЗ 4 10 км ясно +13.2 +8.3 72 +12 +12 1019.3 1019.0
00 16.12 СЗ 2 10 км ясно +13.0 +7.2 68 +12 +12 1019.5 1020.0
03 16.12 СЗ 5 10 км ясно +10.4 +5.6 72 +8 +8 1021.1 1021.0
06 16.12 10 км н/о +10.8 +5.0 67 +10 +11 1022.6 1023.0 +9.6
09 16.12 З 3 10 км ясно +20.0 +7.0 43 +21 +27 комфорт 1021.6 1022.0
12 16.12 СЗ 3 10 км ясно +22.6 +9.2 42 +24 +26 комфорт 1020.4 1020.0
15 16.12 СЗ 2 10 км ясно +19.6 +10.6 56 +21 +21 комфорт 1021.5 1022.0
18 16.12 С 1 10 км ясно +16.4 +7.1 54 +17 +17 1023.2 1023.0 +23.0
21 16.12 СЗ 3 10 км ясно +13.0 +5.7 61 +12 +12 1023.4 1023.0
00 17.12 СЗ 3 10 км ясно +11.4 +5.8 68 +10 +10 1023.6 1024.0
03 17.12 СЗ 2 10 км ясно +10.0 +4.1 67 +9 +9 1024.3 1024.0
06 17.12 С 3 10 км ясно +11.6 +3.9 59 +10 +13 1026.0 1026.0 +9.6
09 17.12 СЗ 4 10 км ясно +18.8 +5.2 41 +19 +24 1024.8 1025.0
12 17.12 С 4 10 км ясно +22.0 +5.0 33 +22 +24 комфорт 1022.7 1023.0
15 17.12 СЗ 2 10 км ясно +18.2 +6.0 45 +19 +19 1023.3 1023.0
18 17.12 З 2 10 км ясно +16.0 +3.9 44 +16 +16 1024.2 1024.0 +22.5
21 17.12 З 1 10 км ясно +12.8 +3.9 55 +13 +13 1024.9 1025.0
00 18.12 ЮЗ 1 10 км ясно +8.6 +2.3 65 +8 +8 1025.2 1025.0
03 18.12 ЮЗ 2 10 км ясно +7.2 +1.7 68 +5 +5 1025.5 1026.0
06 18.12 ЮЗ 1 10 км ясно +9.4 +0.1 52 +9 +13 1027.3 1027.0 +6.8
09 18.12 З 2 10 км 1/0
[Ci fib]
+17.8 +3.7 39 +18 +26 1026.0 1026.0
15 18.12 ЮЗ 1 10 км ясно +16.8 +5.0 46 +18 +18 1025.3 1025.0
18 18.12 С 2 10 км ясно +12.0 +5.0 62 +11 +11 1026.1 1026.0 +21.0

 

Местоположение метеостанции Nasiriya (Ирак): широта 31.08 долгота 46.23 высота над уровнем моря 3 м.

В архиве по умолчанию представлена погода в Nasiriya за последнюю неделю. Архивные данные за месяц целиком и за предыдущие месяцы, начиная с января 2011 года, Вы можете получить, выбрав интересующий диапазон дат из раскрывающегося списка и нажав кнопку "Ввод!".

Внимание! Время в таблицах - всемирное. Для получения местного времени необходимо прибавить поправку, которая в Nasiriya равна 3 ч.

Смотрите также архив погоды в соседних городах и на ближайших метеорологических станциях:

Погода в Rifai (Ирак) (72 км)
Погода в Samawah (Ирак) (95 км)
Погода в Kut-Al-Hai (Ирак) (122 км)
Погода в Amarah (Ирак) (124 км)
Погода в Diwaniya (Ирак) (155 км)
Погода в Basrah (Ирак) (159 км)
Погода в Basrah Airport (Ирак) (161 км)
Погода в Ali Al-Gharbi (Ирак) (161 км)
Погода в Ubaydah Bin Al Jarrah (Ирак) (163 км)
Погода в Mitribah (Кувейт) (178 км)

Пояснения к столбцам:

Ветер - указаны скорость ветра в м/с - средняя за 10 мин, порывы в срок и между сроками (в фигурных скобках) и направление, откуда дует ветер: С - северный, СВ - северо-восточный, В - восточный, ЮВ - юго-восточный, Ю - южный, ЮЗ - юго-западный, З - западный, СЗ - северо-западный.
Видимость - горизонтальная дальность видимости в метрах или километрах. При видимости от 1 до 10 км при отсутствии осадков обычно наблюдается дымка, при ухудшении видимости до 1 км и менее - туман. В сухую погоду видимость может ухудшаться дымом, пылью или мглою.
Явления - указаны атмосферные явления, наблюдавшиеся в срок или в последний час перед сроком; фигурными скобками обозначены явления, наблюдавшиеся между сроками (за 1-3 часа до срока); квадратными скобками обозначены град или гололедные отложения с указанием их диаметра в мм.
Облачность - указаны через наклонную черту общая и нижняя облачность в баллах и высота нижней границы облаков в метрах; квадратными скобками обозначены формы облаков: Ci - перистые, Cs - перисто-слоистые, Cc - перисто-кучевые, Ac - высококучевые, As - высокослоистые, Sc - слоисто-кучевые, Ns - слоисто-дождевые, Cu - кучевые, Cb - кучево-дождевые. Подробнее классификацию облаков см. в Атласе облаков (PDF).
T - Температура воздуха - температура, измеренная на высоте 2 м над землей.
Td - Температура точки росы - температура, при понижении до которой содержащийся в воздухе водяной пар достигнет насыщения.
f - Относительная влажность воздуха - влажноcть воздуха, измеренная на высоте 2 м над землей.
Te - Эффективная температура - температура, которую ощущает одетый по сезону человек в тени. Характеристика душности погоды. При расчете учитывается влияние влажности воздуха и скорости ветра на теплоощущения человека.
Tes - Эффективная температура на солнце - температура, которую ощущает человек, с поправкой на солнечный нагрев. Характеристика знойности погоды. Зависит от высоты солнца над горизонтом, облачности и скорости ветра. Ночью, в пасмурную погоду, а также при ветре 12 м/с и более поправка равна нулю.
P - Атмосферное давление - приведенное к уровню моря атмосферное давление.
Po - Атмосферное давление - измеренное на уровне метеостанции атмосферное давление.
Tmin - Минимальная температура - минимум температуры воздуха на высоте 2 м над землей.
Tmax - Максимальная температура - максимум температуры воздуха на высоте 2 м над землей.
R - Количество осадков - Количество выпавших осадков за период времени, мм. При наведении курсора мыши на число - период времени, за который выпало указанное количество осадков.
R24 - Количество осадков - Количество выпавших осадков за 24 часа, мм.
S - Снежный покров - Высота снежного покрова, см. При наведении курсора мыши на число - состояние снежного покрова и степень покрытия местности в баллах.